Location: Newark
(42.8481°N, 0.4872°E)
Time: 16:23:26
(UTC+00:00)

A-11 Canister half - Pass Details

Date: 05 November 2020
Orbit: 1525 x 1683 km, 47.3° (Epoch: 22 November)

Event Time Altitude Azimuth Distance (km) Brightness Sun altitude
Rises 17:34:50 0° 294° (WNW) 4,741 12.5 -9.6°
Reaches altitude 10° 17:37:56 10° 293° (WNW) 3,739 11.9 -10.1°
Maximum altitude 17:47:19 77° 210° (SSW) 1,564 9.1 -11.8°
Drops below altitude 10° 17:56:34 10° 126° (SE) 3,686 10.6 -13.5°
Enters shadow 17:58:54 - 125° (SE) 4,442 11.0 -13.9°
Sets 17:59:36 0° 125° (SE) 4,672 - -14.0°
